Weather History for KDAW - November, 2012

Change the Weather History Date:

Friday, November 16, 2012

  Actual Average (KSFM) Record (KSFM)
Temperature  
Mean Temperature 36 °F -  
Max Temperature 44 °F 45 °F 68 °F (2001)
Min Temperature 28 °F 26 °F 8 °F (1996)
Degree Days  
Heating Degree Days 29    
Moisture  
Dew Point 27 °F    
Average Humidity 73    
Maximum Humidity 89    
Minimum Humidity 51    
Precipitation  
Precipitation 0.00 in - - ()
Sea Level Pressure  
Sea Level Pressure 30.32 in    
Wind  
Wind Speed 4 mph (NNW)    
Max Wind Speed 6 mph    
Max Gust Speed -    
Visibility 10 miles    
Events      
Averages and records for this station are not official NWS values.
T = Trace of Precipitation, MM = Missing Value Source: NWS Daily Summary

Daily Weather History Graph

Daily Weather History Graph

Search for Another Location

Airport or City:

Trip Planner

Search our weather history database for the weather conditions in past years. The results will help you decide how hot, cold, wet, or windy it might be!

Date:

Astronomy

Nov. 16, 2012 Rise Set
Actual Time 6:38 AM EST 4:18 PM EST
Civil Twilight 6:07 AM EST 4:48 PM EST
Nautical Twilight 5:33 AM EST 5:23 PM EST
Astronomical Twilight 4:59 AM EST 5:57 PM EST
Moon 9:31 AM EST (11/16) 7:12 PM EST (11/16)
Length of Visible Light 10h 41m
Length of Day
9h 39m
Waxing Crescent, 11% of the Moon is Illuminated
Nov 16
Waxing Crescent
Nov 20
First Quarter
Nov 28
Full
Dec 6
Last Quarter
Dec 13
New

Hourly Weather History & Observations

Time (EST) Temp. Windchill Dew Point Humidity Pressure Visibility Wind Dir Wind Speed Gust Speed Precip Events Conditions
12:51 AM 28.9 °F 23.9 °F 26.1 °F 89% 30.29 in 10.0 mi NW 4.6 mph - N/A   Clear
1:51 AM 30.0 °F 24.1 °F 26.1 °F 85% 30.29 in 10.0 mi NW 5.8 mph - N/A   Clear
2:51 AM 28.9 °F 23.9 °F 25.0 °F 85% 30.29 in 10.0 mi NNW 4.6 mph - N/A   Clear
4:51 AM 28.9 °F 23.9 °F 26.1 °F 89% 30.29 in 10.0 mi NW 4.6 mph - N/A   Clear
5:51 AM 28.0 °F 24.2 °F 25.0 °F 88% 30.29 in 10.0 mi NNW 3.5 mph - N/A   Clear
7:51 AM 30.0 °F - 27.0 °F 88% 30.32 in 10.0 mi Calm Calm - N/A   Clear
8:51 AM 33.1 °F 30.0 °F 28.9 °F 85% 30.32 in 10.0 mi NNW 3.5 mph - N/A   Clear
9:51 AM 35.1 °F 32.2 °F 28.0 °F 76% 30.33 in 10.0 mi NNE 3.5 mph - N/A   Clear
10:51 AM 39.9 °F 35.8 °F 28.9 °F 65% 30.32 in 10.0 mi Variable 5.8 mph - N/A   Clear
11:51 AM 41.0 °F 38.0 °F 28.0 °F 60% 30.30 in 10.0 mi Variable 4.6 mph - N/A   Clear
12:51 PM 43.0 °F - 27.0 °F 53% 30.30 in 10.0 mi Calm Calm - N/A   Clear
1:51 PM 44.1 °F - 27.0 °F 51% 30.27 in 10.0 mi Calm Calm - N/A   Clear
2:51 PM 43.0 °F - 26.1 °F 51% 30.30 in 10.0 mi Calm Calm - N/A   Clear
3:51 PM 43.0 °F - 27.0 °F 53% 30.31 in 10.0 mi Calm Calm - N/A   Clear
4:51 PM 39.9 °F - 28.0 °F 63% 30.32 in 10.0 mi Calm Calm - N/A   Clear
5:51 PM 39.9 °F - 27.0 °F 60% 30.33 in 10.0 mi Calm Calm - N/A   Clear
6:51 PM 35.1 °F 31.0 °F 26.1 °F 70% 30.34 in 10.0 mi NW 4.6 mph - N/A   Clear
7:51 PM 35.1 °F 30.1 °F 27.0 °F 72% 30.35 in 10.0 mi NW 5.8 mph - N/A   Clear
8:51 PM 33.1 °F 30.0 °F 27.0 °F 78% 30.37 in 10.0 mi NNW 3.5 mph - N/A   Clear
9:51 PM 32.0 °F 27.5 °F 26.1 °F 79% 30.40 in 10.0 mi NW 4.6 mph - N/A   Clear
10:51 PM 33.1 °F 27.7 °F 26.1 °F 75% 30.40 in 10.0 mi WNW 5.8 mph - N/A   Clear
11:51 PM 30.0 °F 26.5 °F 25.0 °F 82% 30.42 in 10.0 mi NNW 3.5 mph - N/A   Clear